Time,TemperatureF,DewpointF,PressureIn,WindDirection,WindDirectionDegrees,WindSpeedMPH,WindSpeedGustMPH,Humidity,HourlyPrecipIn,Conditions,Clouds,dailyrainin,SoftwareType,DateUTC
2013-06-30 00:02:00,63.0,52.0,29.90,NNE,27,0.0,1.0,68,0.00,,,0.35,,2013-06-30 05:02:00,
2013-06-30 00:12:00,63.0,52.0,29.90,NNE,27,0.0,1.0,68,0.00,,,0.35,,2013-06-30 05:12:00,
2013-06-30 00:22:00,63.0,53.0,29.91,North,360,0.0,3.0,69,0.00,,,0.34,,2013-06-30 05:22:00,
2013-06-30 00:33:00,63.0,53.0,29.91,North,360,0.0,3.0,69,0.00,,,0.34,,2013-06-30 05:33:00,
2013-06-30 00:43:00,63.0,53.0,29.91,NE,46,2.0,10.0,69,0.00,,,0.34,,2013-06-30 05:43:00,
2013-06-30 00:53:00,63.0,53.0,29.91,NE,46,2.0,10.0,69,0.00,,,0.34,,2013-06-30 05:53:00,
2013-06-30 01:02:00,63.0,53.0,29.92,NE,46,1.0,4.0,69,0.00,,,0.34,,2013-06-30 06:02:00,
2013-06-30 01:12:00,63.0,53.0,29.92,NE,46,1.0,4.0,69,0.00,,,0.34,,2013-06-30 06:12:00,
2013-06-30 01:23:00,62.0,52.0,29.92,NE,49,2.0,5.0,70,0.00,,,0.34,,2013-06-30 06:23:00,
2013-06-30 01:34:00,62.0,52.0,29.93,NE,46,2.0,6.0,70,0.00,,,0.34,,2013-06-30 06:34:00,
2013-06-30 01:43:00,62.0,52.0,29.93,NE,46,2.0,6.0,70,0.00,,,0.34,,2013-06-30 06:43:00,
2013-06-30 01:53:00,61.0,51.0,29.92,NE,51,1.0,3.0,70,0.00,,,0.34,,2013-06-30 06:53:00,
2013-06-30 02:02:00,61.0,51.0,29.92,NE,51,1.0,3.0,70,0.00,,,0.34,,2013-06-30 07:02:00,
2013-06-30 02:12:00,61.0,51.0,29.93,East,100,0.0,3.0,69,0.00,,,0.34,,2013-06-30 07:12:00,
2013-06-30 02:22:00,61.0,51.0,29.93,East,100,0.0,3.0,69,0.00,,,0.34,,2013-06-30 07:22:00,
2013-06-30 02:33:00,60.0,51.0,29.93,North,4,2.0,4.0,71,0.00,,,0.34,,2013-06-30 07:33:00,
2013-06-30 02:44:00,60.0,51.0,29.93,North,4,2.0,4.0,71,0.00,,,0.34,,2013-06-30 07:44:00,
2013-06-30 02:53:00,60.0,50.0,29.94,NE,39,0.0,3.0,70,0.00,,,0.34,,2013-06-30 07:53:00,
2013-06-30 03:02:00,60.0,50.0,29.94,NE,39,0.0,3.0,70,0.00,,,0.34,,2013-06-30 08:02:00,
2013-06-30 03:12:00,58.0,50.0,29.94,ENE,61,1.0,3.0,74,0.00,,,0.34,,2013-06-30 08:12:00,
2013-06-30 03:22:00,58.0,50.0,29.94,ENE,61,1.0,3.0,74,0.00,,,0.34,,2013-06-30 08:22:00,
2013-06-30 03:33:00,59.0,50.0,29.94,NNE,18,0.0,3.0,73,0.00,,,0.34,,2013-06-30 08:33:00,
2013-06-30 03:42:00,59.0,50.0,29.95,NNE,18,2.0,4.0,73,0.00,,,0.34,,2013-06-30 08:42:00,
2013-06-30 03:53:00,59.0,50.0,29.95,NNE,18,2.0,4.0,73,0.00,,,0.34,,2013-06-30 08:53:00,
2013-06-30 04:01:00,58.0,50.0,29.96,North,10,1.0,4.0,76,0.00,,,0.34,,2013-06-30 09:01:00,
2013-06-30 04:12:00,58.0,50.0,29.96,North,10,1.0,4.0,76,0.00,,,0.34,,2013-06-30 09:12:00,
2013-06-30 04:23:00,56.0,50.0,29.96,NNW,327,2.0,3.0,81,0.00,,,0.34,,2013-06-30 09:23:00,
2013-06-30 04:34:00,56.0,50.0,29.96,NNW,327,2.0,3.0,81,0.00,,,0.34,,2013-06-30 09:34:00,
2013-06-30 04:43:00,57.0,51.0,29.97,NNW,342,1.0,2.0,81,0.00,,,0.34,,2013-06-30 09:43:00,
2013-06-30 04:53:00,57.0,51.0,29.97,NNW,342,1.0,2.0,81,0.00,,,0.34,,2013-06-30 09:53:00,
2013-06-30 05:02:00,57.0,51.0,29.97,North,350,2.0,4.0,80,0.00,,,0.34,,2013-06-30 10:02:00,
2013-06-30 05:11:00,57.0,51.0,29.97,North,350,2.0,4.0,80,0.00,,,0.34,,2013-06-30 10:11:00,
2013-06-30 05:22:00,57.0,50.0,29.97,NE,39,0.0,4.0,77,0.00,,,0.08,,2013-06-30 10:22:00,
2013-06-30 05:33:00,57.0,50.0,29.97,NE,39,0.0,4.0,77,0.00,,,0.08,,2013-06-30 10:33:00,
2013-06-30 05:42:00,57.0,51.0,29.97,NNW,344,0.0,1.0,79,0.00,,,0.08,,2013-06-30 10:42:00,
2013-06-30 05:53:00,57.0,51.0,29.97,NNW,344,0.0,1.0,79,0.00,,,0.08,,2013-06-30 10:53:00,
2013-06-30 06:02:00,56.0,50.0,29.98,North,9,0.0,1.0,81,0.00,,,0.08,,2013-06-30 11:02:00,
2013-06-30 06:11:00,55.0,50.0,29.98,North,349,0.0,1.0,83,0.00,,,0.08,,2013-06-30 11:11:00,
2013-06-30 06:22:00,55.0,50.0,29.98,North,349,0.0,1.0,83,0.00,,,0.08,,2013-06-30 11:22:00,
2013-06-30 06:33:00,55.0,50.0,29.98,NNW,348,1.0,1.0,84,0.00,,,0.05,,2013-06-30 11:33:00,
2013-06-30 06:43:00,55.0,50.0,29.98,NNW,348,1.0,1.0,84,0.00,,,0.05,,2013-06-30 11:43:00,
2013-06-30 06:53:00,55.0,50.0,29.99,NW,314,1.0,2.0,84,0.00,,,0.05,,2013-06-30 11:53:00,
2013-06-30 07:02:00,55.0,50.0,29.99,NW,314,1.0,2.0,84,0.00,,,0.05,,2013-06-30 12:02:00,
2013-06-30 07:11:00,57.0,52.0,29.99,North,350,0.0,3.0,84,0.00,,,0.05,,2013-06-30 12:11:00,
2013-06-30 07:24:00,57.0,52.0,29.99,North,350,0.0,3.0,84,0.00,,,0.05,,2013-06-30 12:24:00,
2013-06-30 07:33:00,56.0,52.0,30.00,NNW,332,2.0,3.0,86,0.00,,,0.00,,2013-06-30 12:33:00,
2013-06-30 07:43:00,56.0,52.0,30.00,NNW,332,2.0,3.0,86,0.00,,,0.00,,2013-06-30 12:43:00,
2013-06-30 07:52:00,56.0,52.0,30.01,NNE,25,0.0,2.0,87,0.00,,,0.00,,2013-06-30 12:52:00,
2013-06-30 08:02:00,56.0,52.0,30.01,NNE,25,0.0,2.0,87,0.00,,,0.00,,2013-06-30 13:02:00,
2013-06-30 08:12:00,58.0,53.0,30.01,NE,51,0.0,3.0,84,0.00,,,0.00,,2013-06-30 13:12:00,
2013-06-30 08:22:00,59.0,53.0,30.02,NE,46,1.0,3.0,81,0.00,,,0.00,,2013-06-30 13:22:00,
2013-06-30 08:34:00,59.0,53.0,30.02,NE,46,1.0,3.0,81,0.00,,,0.00,,2013-06-30 13:34:00,
2013-06-30 08:43:00,60.0,53.0,30.03,NE,47,1.0,3.0,79,0.00,,,0.00,,2013-06-30 13:43:00,
2013-06-30 08:53:00,60.0,53.0,30.03,NE,47,1.0,3.0,79,0.00,,,0.00,,2013-06-30 13:53:00,
2013-06-30 09:02:00,61.0,54.0,30.03,North,350,1.0,5.0,78,0.00,,,0.00,,2013-06-30 14:02:00,
2013-06-30 09:11:00,61.0,54.0,30.03,North,350,1.0,5.0,78,0.00,,,0.00,,2013-06-30 14:11:00,
2013-06-30 09:22:00,62.0,54.0,30.03,NNE,15,2.0,4.0,75,0.00,,,0.00,,2013-06-30 14:22:00,
2013-06-30 09:33:00,62.0,54.0,30.03,NNE,15,2.0,4.0,75,0.00,,,0.00,,2013-06-30 14:33:00,
2013-06-30 09:44:00,63.0,54.0,30.03,NNW,342,1.0,6.0,72,0.00,,,0.00,,2013-06-30 14:44:00,
2013-06-30 09:52:00,63.0,54.0,30.03,NNW,342,1.0,6.0,72,0.00,,,0.00,,2013-06-30 14:52:00,
2013-06-30 10:02:00,65.0,55.0,30.03,North,353,1.0,5.0,69,0.00,,,0.00,,2013-06-30 15:02:00,
2013-06-30 10:23:00,66.0,55.0,30.03,NNW,344,2.0,6.0,68,0.00,,,0.00,,2013-06-30 15:23:00,
2013-06-30 10:34:00,68.0,55.0,30.02,NNW,330,3.0,8.0,64,0.00,,,0.00,,2013-06-30 15:34:00,
2013-06-30 10:44:00,68.0,55.0,30.02,NNW,330,3.0,8.0,64,0.00,,,0.00,,2013-06-30 15:44:00,
2013-06-30 10:53:00,69.0,55.0,30.02,NE,53,2.0,9.0,61,0.00,,,0.00,,2013-06-30 15:53:00,
2013-06-30 11:01:00,69.0,55.0,30.02,NE,53,2.0,9.0,61,0.00,,,0.00,,2013-06-30 16:01:00,
2013-06-30 11:11:00,71.0,54.0,30.02,NNE,23,3.0,9.0,56,0.00,,,0.00,,2013-06-30 16:11:00,
2013-06-30 11:21:00,71.0,54.0,30.02,NNE,23,3.0,9.0,56,0.00,,,0.00,,2013-06-30 16:21:00,
2013-06-30 11:34:00,71.0,52.0,30.03,NE,49,4.0,10.0,52,0.00,,,0.00,,2013-06-30 16:34:00,
2013-06-30 11:44:00,71.0,52.0,30.03,NE,49,4.0,10.0,52,0.00,,,0.00,,2013-06-30 16:44:00,
2013-06-30 11:53:00,72.0,53.0,30.03,East,82,7.0,12.0,51,0.00,,,0.00,,2013-06-30 16:53:00,
2013-06-30 12:02:00,72.0,53.0,30.03,East,82,7.0,12.0,51,0.00,,,0.00,,2013-06-30 17:02:00,
2013-06-30 12:11:00,73.0,52.0,30.02,ENE,58,5.0,11.0,48,0.00,,,0.00,,2013-06-30 17:11:00,
2013-06-30 12:23:00,73.0,52.0,30.02,ENE,58,5.0,11.0,48,0.00,,,0.00,,2013-06-30 17:23:00,
2013-06-30 12:34:00,74.0,51.0,30.02,ENE,63,5.0,12.0,45,0.00,,,0.00,,2013-06-30 17:34:00,
2013-06-30 12:43:00,74.0,50.0,30.02,ENE,75,4.0,9.0,43,0.00,,,0.00,,2013-06-30 17:43:00,
2013-06-30 12:52:00,74.0,50.0,30.02,ENE,75,4.0,9.0,43,0.00,,,0.00,,2013-06-30 17:52:00,
2013-06-30 13:02:00,75.0,50.0,30.02,ENE,71,4.0,10.0,41,0.00,,,0.00,,2013-06-30 18:02:00,
2013-06-30 13:12:00,75.0,50.0,30.02,ENE,71,4.0,10.0,41,0.00,,,0.00,,2013-06-30 18:12:00,
2013-06-30 13:22:00,75.0,46.0,30.02,ENE,74,6.0,10.0,36,0.00,,,0.00,,2013-06-30 18:22:00,
2013-06-30 13:34:00,75.0,46.0,30.02,ENE,74,6.0,10.0,36,0.00,,,0.00,,2013-06-30 18:34:00,
2013-06-30 13:43:00,76.0,49.0,30.01,ENE,58,8.0,13.0,38,0.00,,,0.00,,2013-06-30 18:43:00,
2013-06-30 13:53:00,76.0,49.0,30.01,ENE,58,8.0,13.0,38,0.00,,,0.00,,2013-06-30 18:53:00,
2013-06-30 14:01:00,76.0,48.0,30.01,NNW,335,8.0,13.0,37,0.00,,,0.00,,2013-06-30 19:01:00,
2013-06-30 14:11:00,76.0,48.0,30.01,NNW,335,8.0,13.0,37,0.00,,,0.00,,2013-06-30 19:11:00,
2013-06-30 14:22:00,77.0,49.0,30.01,North,355,5.0,9.0,37,0.00,,,0.00,,2013-06-30 19:22:00,
2013-06-30 14:33:00,77.0,49.0,30.01,North,355,5.0,9.0,37,0.00,,,0.00,,2013-06-30 19:33:00,
2013-06-30 14:43:00,77.0,49.0,30.01,ENE,63,5.0,14.0,38,0.00,,,0.00,,2013-06-30 19:43:00,
2013-06-30 14:53:00,77.0,49.0,30.01,ENE,63,5.0,14.0,38,0.00,,,0.00,,2013-06-30 19:53:00,
2013-06-30 15:02:00,77.0,50.0,30.01,ENE,58,7.0,11.0,39,0.00,,,0.00,,2013-06-30 20:02:00,
2013-06-30 15:11:00,77.0,53.0,30.01,East,80,5.0,15.0,43,0.00,,,0.00,,2013-06-30 20:11:00,
2013-06-30 15:22:00,77.0,53.0,30.01,East,80,5.0,15.0,43,0.00,,,0.00,,2013-06-30 20:22:00,
2013-06-30 15:34:00,78.0,51.0,30.01,NNW,340,6.0,11.0,39,0.00,,,0.00,,2013-06-30 20:34:00,
2013-06-30 15:42:00,78.0,51.0,30.01,NNW,340,6.0,11.0,39,0.00,,,0.00,,2013-06-30 20:42:00,
2013-06-30 15:52:00,78.0,51.0,30.01,NE,36,7.0,11.0,39,0.00,,,0.00,,2013-06-30 20:52:00,
2013-06-30 16:01:00,78.0,51.0,30.01,NE,36,7.0,11.0,39,0.00,,,0.00,,2013-06-30 21:01:00,
2013-06-30 16:11:00,78.0,53.0,30.00,ENE,70,8.0,12.0,42,0.00,,,0.00,,2013-06-30 21:11:00,
2013-06-30 16:22:00,78.0,53.0,30.00,ENE,70,8.0,12.0,42,0.00,,,0.00,,2013-06-30 21:22:00,
2013-06-30 16:34:00,79.0,53.0,30.00,NE,48,2.0,9.0,41,0.00,,,0.00,,2013-06-30 21:34:00,
2013-06-30 16:43:00,79.0,53.0,30.00,NE,48,2.0,9.0,41,0.00,,,0.00,,2013-06-30 21:43:00,
2013-06-30 16:53:00,79.0,53.0,30.00,East,85,3.0,8.0,40,0.00,,,0.00,,2013-06-30 21:53:00,
2013-06-30 17:01:00,79.0,52.0,30.00,East,81,5.0,11.0,39,0.00,,,0.00,,2013-06-30 22:01:00,
2013-06-30 17:11:00,79.0,52.0,30.00,East,81,5.0,11.0,39,0.00,,,0.00,,2013-06-30 22:11:00,
2013-06-30 17:22:00,79.0,53.0,30.00,NNE,16,4.0,11.0,40,0.00,,,0.00,,2013-06-30 22:22:00,
2013-06-30 17:34:00,79.0,53.0,30.00,NNE,16,4.0,11.0,40,0.00,,,0.00,,2013-06-30 22:34:00,
2013-06-30 17:43:00,79.0,51.0,30.00,ENE,70,5.0,9.0,38,0.00,,,0.00,,2013-06-30 22:43:00,
2013-06-30 17:53:00,79.0,51.0,30.00,ENE,70,5.0,9.0,38,0.00,,,0.00,,2013-06-30 22:53:00,
2013-06-30 18:02:00,79.0,51.0,30.00,North,11,3.0,7.0,38,0.00,,,0.00,,2013-06-30 23:02:00,
2013-06-30 18:11:00,79.0,51.0,30.00,North,11,3.0,7.0,38,0.00,,,0.00,,2013-06-30 23:11:00,
2013-06-30 18:22:00,79.0,53.0,30.00,ENE,64,4.0,9.0,41,0.00,,,0.00,,2013-06-30 23:22:00,
2013-06-30 18:33:00,79.0,53.0,30.00,ENE,64,4.0,9.0,41,0.00,,,0.00,,2013-06-30 23:33:00,
2013-06-30 18:43:00,79.0,54.0,30.00,NE,51,4.0,8.0,42,0.00,,,0.00,,2013-06-30 23:43:00,
2013-06-30 19:01:00,78.0,53.0,30.00,ENE,57,3.0,9.0,42,0.00,,,0.00,,2013-07-01 00:01:00,
2013-06-30 19:11:00,78.0,53.0,30.00,NE,51,3.0,9.0,42,0.00,,,0.00,,2013-07-01 00:11:00,
2013-06-30 19:22:00,78.0,53.0,30.00,NE,51,3.0,9.0,42,0.00,,,0.00,,2013-07-01 00:22:00,
2013-06-30 19:33:00,78.0,54.0,30.00,ENE,72,1.0,7.0,44,0.00,,,0.00,,2013-07-01 00:33:00,
2013-06-30 19:42:00,78.0,54.0,30.00,ENE,72,1.0,7.0,44,0.00,,,0.00,,2013-07-01 00:42:00,
2013-06-30 19:52:00,77.0,53.0,30.01,ENE,72,4.0,5.0,43,0.00,,,0.00,,2013-07-01 00:52:00,
2013-06-30 20:01:00,77.0,53.0,30.01,ENE,72,4.0,5.0,43,0.00,,,0.00,,2013-07-01 01:01:00,
2013-06-30 20:11:00,77.0,53.0,30.01,ENE,72,4.0,5.0,43,0.00,,,0.00,,2013-07-01 01:11:00,
2013-06-30 20:22:00,77.0,53.0,30.01,ENE,74,2.0,5.0,44,0.00,,,0.00,,2013-07-01 01:22:00,
2013-06-30 20:33:00,77.0,53.0,30.01,ENE,74,2.0,5.0,44,0.00,,,0.00,,2013-07-01 01:33:00,
2013-06-30 20:43:00,77.0,53.0,30.01,ENE,74,2.0,5.0,44,0.00,,,0.00,,2013-07-01 01:43:00,
2013-06-30 20:52:00,76.0,55.0,30.01,ENE,64,0.0,0.0,48,0.00,,,0.00,,2013-07-01 01:52:00,
2013-06-30 21:02:00,76.0,55.0,30.01,ENE,64,0.0,0.0,48,0.00,,,0.00,,2013-07-01 02:02:00,
2013-06-30 21:11:00,75.0,56.0,30.01,ENE,64,0.0,0.0,52,0.00,,,0.00,,2013-07-01 02:11:00,
2013-06-30 21:22:00,75.0,56.0,30.01,ENE,64,0.0,0.0,52,0.00,,,0.00,,2013-07-01 02:22:00,
2013-06-30 21:33:00,71.0,57.0,30.01,NNW,330,0.0,1.0,62,0.00,,,0.00,,2013-07-01 02:33:00,
2013-06-30 21:44:00,69.0,59.0,30.02,NNE,26,0.0,0.0,70,0.00,,,0.00,,2013-07-01 02:44:00,
2013-06-30 21:53:00,69.0,59.0,30.02,NNE,26,0.0,0.0,70,0.00,,,0.00,,2013-07-01 02:53:00,
2013-06-30 22:01:00,67.0,58.0,30.02,NW,316,0.0,1.0,73,0.00,,,0.00,,2013-07-01 03:01:00,
2013-06-30 22:11:00,67.0,58.0,30.02,NW,316,0.0,1.0,73,0.00,,,0.00,,2013-07-01 03:11:00,
2013-06-30 22:23:00,67.0,57.0,30.03,WNW,283,0.0,1.0,70,0.00,,,0.00,,2013-07-01 03:23:00,
2013-06-30 22:33:00,67.0,57.0,30.03,WNW,283,0.0,1.0,70,0.00,,,0.00,,2013-07-01 03:33:00,
2013-06-30 22:43:00,66.0,57.0,30.03,WNW,283,0.0,0.0,73,0.00,,,0.00,,2013-07-01 03:43:00,
2013-06-30 22:52:00,66.0,57.0,30.03,WNW,283,0.0,0.0,73,0.00,,,0.00,,2013-07-01 03:52:00,
2013-06-30 23:01:00,65.0,56.0,30.03,WNW,283,0.0,0.0,73,0.00,,,0.00,,2013-07-01 04:01:00,
2013-06-30 23:11:00,64.0,57.0,30.03,WNW,283,0.0,0.0,79,0.00,,,0.00,,2013-07-01 04:11:00,
2013-06-30 23:22:00,64.0,57.0,30.03,WNW,283,0.0,0.0,79,0.00,,,0.00,,2013-07-01 04:22:00,
2013-06-30 23:32:00,64.0,57.0,30.03,WNW,283,0.0,0.0,79,0.00,,,0.00,,2013-07-01 04:32:00,
2013-06-30 23:43:00,64.0,57.0,30.03,WNW,283,0.0,0.0,79,0.00,,,0.00,,2013-07-01 04:43:00,